Location: Bruch
(44.2051°N, 0.4120°E)
Time: 18:00:00
(UTC+00:00)

Cosmos 1812 - Pass Details

Date: 29 November 2020
Orbit: 517 x 520 km, 82.5° (Epoch: 23 January)

Event Time Altitude Azimuth Distance (km) Brightness Sun altitude
Exits shadow 05:42:33 - 351° (N) 2,201 5.7 -15.6°
Reaches altitude 10° 05:43:37 10° 351° (N) 1,759 5.2 -15.4°
Maximum altitude 05:47:29 90° 288° (WNW) 525 2.6 -14.7°
Drops below altitude 10° 05:51:19 10° 173° (S) 1,745 5.7 -14.1°
Sets 05:53:26 0° 173° (S) 2,628 6.6 -13.7°
